Location: Carrières
(48.9495°N, 2.0407°E)
Time: 18:21:28
(UTC+00:00)

Cosmos 1606 Rocket - Pass Details

Date: 22 June 2024
Orbit: 599 x 628 km, 82.5° (Epoch: 15 July)

Event Time Altitude Azimuth Distance (km) Brightness Sun altitude
Rises 02:28:21 0° 339° (NNW) 2,918 7.5 -9.8°
Reaches altitude 10° 02:30:56 10° 325° (NW) 2,001 6.4 -9.6°
Maximum altitude 02:34:25 23° 273° (W) 1,321 5.0 -9.3°
Enters shadow 02:37:32 12° 224° (SW) 1,868 5.3 -8.9°
